Change the Weather History Date:

Saturday, December 22, 2012

  Actual Average Record
Temperature  
Mean Temperature 32 °F -  
Max Temperature 44 °F 41 °F 65 °F (1965)
Min Temperature 19 °F 21 °F -19 °F (1989)
Degree Days  
Heating Degree Days 34    
Moisture  
Dew Point 20 °F    
Average Humidity 65    
Maximum Humidity 91    
Minimum Humidity 36    
Precipitation  
Precipitation 0.00 in - - ()
Sea Level Pressure  
Sea Level Pressure 30.18 in    
Wind  
Wind Speed 5 mph (South)    
Max Wind Speed 13 mph    
Max Gust Speed -    
Visibility 10 miles    
Events      
Averages and records for this station are not official NWS values.
T = Trace of Precipitation, MM = Missing Value Source: NWS Daily Summary

Daily Weather History Graph

Daily Weather History Graph

Search for Another Location

Airport or City:

Trip Planner

Search our weather history database for the weather conditions in past years. The results will help you decide how hot, cold, wet, or windy it might be!

Date:

Astronomy

Dec. 22, 2012 Rise Set
Actual Time 7:14 AM CST 4:42 PM CST
Civil Twilight 6:44 AM CST 5:12 PM CST
Nautical Twilight 6:10 AM CST 5:45 PM CST
Astronomical Twilight 5:38 AM CST 6:17 PM CST
Moon 12:58 PM CST (12/22) 2:01 AM CST (12/22)
Length of Visible Light 10h 28m
Length of Day
9h 28m
Waxing Gibbous, 74% of the Moon is Illuminated
Dec 22
Waxing Gibbous
Dec 28
Full
Jan 4
Last Quarter
Jan 11
New
Jan 18
First Quarter

Hourly Weather History & Observations

Time (CST) Temp. Windchill Dew Point Humidity Pressure Visibility Wind Dir Wind Speed Gust Speed Precip Events Conditions
12:55 AM 22.6 °F 15.3 °F 14.7 °F 72% 30.30 in 10.0 mi WNW 5.8 mph - N/A   Clear
1:55 AM 22.5 °F 17.8 °F 15.8 °F 76% 30.31 in 10.0 mi SW 3.5 mph - N/A   Clear
2:55 AM 22.1 °F - 15.1 °F 74% 30.32 in 10.0 mi Calm Calm - N/A   Clear
3:55 AM 21.7 °F - 17.1 °F 82% 30.30 in 10.0 mi Calm Calm - N/A   Clear
4:55 AM 21.7 °F - 16.0 °F 78% 30.31 in 10.0 mi Calm Calm - N/A   Clear
5:55 AM 19.6 °F - 16.9 °F 89% 30.32 in 10.0 mi Calm Calm - N/A   Clear
6:55 AM 20.5 °F - 17.1 °F 87% 30.32 in 10.0 mi Calm Calm - N/A   Clear
7:55 AM 19.4 °F 14.3 °F 17.2 °F 91% 30.32 in 10.0 mi South 3.5 mph - N/A   Clear
8:55 AM 27.1 °F 21.8 °F 20.3 °F 75% 30.30 in 10.0 mi SSE 4.6 mph - N/A   Clear
9:55 AM 31.3 °F 25.6 °F 18.5 °F 59% 30.29 in 10.0 mi SE 5.8 mph - N/A   Clear
10:55 AM 35.1 °F 29.3 °F 18.7 °F 51% 30.26 in 10.0 mi SSE 6.9 mph - N/A   Clear
11:55 AM 39.2 °F 33.6 °F 18.5 °F 43% 30.21 in 10.0 mi SE 8.1 mph - N/A   Clear
12:55 PM 42.4 °F 35.7 °F 17.2 °F 36% 30.18 in 10.0 mi South 12.7 mph - N/A   Clear
1:55 PM 44.2 °F 38.8 °F 19.4 °F 37% 30.14 in 10.0 mi SSE 10.4 mph - N/A   Clear
2:55 PM 44.6 °F 39.7 °F 20.5 °F 38% 30.12 in 10.0 mi SE 9.2 mph - N/A   Clear
3:55 PM 43.3 °F 38.6 °F 21.6 °F 42% 30.09 in 10.0 mi SSE 8.1 mph - N/A   Clear
4:55 PM 39.0 °F 32.8 °F 21.9 °F 50% 30.07 in 10.0 mi SE 9.2 mph - N/A   Clear
5:55 PM 36.3 °F 28.9 °F 22.8 °F 58% 30.06 in 10.0 mi SSE 10.4 mph - N/A   Clear
6:55 PM 35.6 °F 28.6 °F 23.9 °F 62% 30.05 in 10.0 mi South 9.2 mph - N/A   Clear
7:55 PM 35.6 °F 28.0 °F 25.7 °F 67% 30.04 in 10.0 mi South 10.4 mph - N/A   Clear
8:55 PM 36.7 °F 29.9 °F 26.6 °F 67% 30.03 in 10.0 mi South 9.2 mph - N/A   Clear
9:55 PM 35.6 °F 29.9 °F 27.1 °F 71% 30.00 in 10.0 mi South 6.9 mph - N/A   Clear
10:55 PM 34.3 °F 28.4 °F 28.2 °F 78% 29.99 in 10.0 mi South 6.9 mph - N/A   Clear
11:55 PM 34.3 °F 27.7 °F 28.9 °F 81% 29.98 in 10.0 mi South 8.1 mph - N/A   Clear